Regional Weather Roundup
Issued by NWS

Home | Current Version | Previous Version | Graphics & Text | Print | Product List | Glossary On
Versions: 1 2 3 4 5 6 7 8 9 10 11 12 13 14 15 16 17 18 19 20 21 22 23 24 25 26 27 28 29 30 31 32 33 34 35 36 37 38 39 40 41 42 43 44 45 46 47 48 49 50
000
ASUS43 KDMX 250406
RWRIA

WEATHER ROUNDUP FOR IOWA
NATIONAL WEATHER SERVICE DES MOINES IA
1000 PM CST SAT FEB 24 2018

NOTE: "FAIR" INDICATES FEW OR NO CLOUDS BELOW 12,000 FEET WITH NO
SIGNIFICANT WEATHER AND/OR OBSTRUCTIONS TO VISIBILITY.

* - THESE STATIONS ARE NOT NWS STATIONS...THUS NOT UNDER NWS
QUALITY CONTROL.  THEY ALSO DO NOT REPORT WEATHER SUCH
AS PRECIPITATION OR FOG.

IAZ001>003-012>014-020>022-031>034-043>046-250500-
   NORTHWEST IOWA

CITY           SKY/WX    TMP DP  RH WIND       PRES   REMARKS
CARROLL *      CLOUDY    27  25  93 W17       29.69R WCI  14
CHEROKEE *     CLOUDY    24  22  91 W17       29.68R WCI  11
DENISON *      CLOUDY    27  25  93 W10       29.72R WCI  17
LE MARS *      CLOUDY    21  18  86 W10G21    29.72R WCI  10
ORANGE CITY *  CLOUDY    19  19 100 W21G28    29.67R WCI   3
SHELDON *      CLOUDY    18  16  93 W23G29    29.64R WCI   0
SIOUX CITY     CLOUDY    24  19  81 NW23G33   29.72R WCI   9
SPENCER        CLOUDY    22  18  85 W21       29.63S WCI   6
STORM LAKE *   CLOUDY    25  23  93 W17G28    29.64S WCI  11
$$

IAZ055>058-069>071-079>083-090>094-250500-
   SOUTHWEST IOWA

CITY           SKY/WX    TMP DP  RH WIND       PRES   REMARKS
ATLANTIC *     CLOUDY    28  28 100 SW15      29.74R WCI  17
AUDUBON *      CLOUDY    28  25  86 CALM      29.72R
CLARINDA *     MOCLDY    28  28 100 SW8       29.81S WCI  20
COUNCIL BLFS * CLOUDY    28  28 100 SW14      29.76R WCI  17
CRESTON *      MOCLDY    28  27  93 W14       29.75S WCI  17
LAMONI         CLOUDY    31  26  82 W17       29.77R WCI  19
RED OAK *      CLEAR     28  27  93 SW9       29.77S WCI  20
SHENANDOAH *   PTCLDY    30  28  93 W14       29.80R WCI  20
$$

IAZ047>049-059>061-072>074-084-250500-
   CENTRAL IOWA

CITY           SKY/WX    TMP DP  RH WIND       PRES   REMARKS
AMES           CLOUDY    29  24  82 W20G28    29.68R WCI  16
ANKENY *       MOCLDY    28  27  93 W14G21    29.71R WCI  17
BOONE *        CLOUDY    28  27  93 W17G24    29.66R WCI  16
CHARITON *     CLOUDY    30  28  93 W18G29    29.73R WCI  18
DES MOINES     MOCLDY    30  25  81 W20       29.71R WCI  17
GRINNELL*      CLOUDY    31  30  94 W22       29.66R WCI  19
KNOXVILLE *    CLOUDY    32  28  86 W25       29.70R WCI  19
MARSHALLTOWN   MOCLDY    29  25  85 W26G38    29.64R WCI  14
NEWTON *       MIX PCPN  30  28  93 W24G30    29.69R WCI  16
PELLA *        CLOUDY    31  31  97 W23G31    29.71R WCI  18
PERRY *        CLOUDY    29  27  92 W13G18    29.71R WCI  19
$$

IAZ004>006-015-016-023>025-035-036-250500-
   NORTH CENTRAL IOWA

CITY           SKY/WX    TMP DP  RH WIND       PRES   REMARKS
ALGONA *       CLOUDY    23 N/A N/A W18G25    29.62R WCI   9
CLARION *      MOCLDY    25  25 100 W24       29.63R FOG     WCI   9
ESTHERVILLE    CLOUDY    19  16  88 W18G26    29.60R WCI   4
FORT DODGE *   CLOUDY    25  22  88 W14G21    29.65R WCI  13
MASON CITY     CLOUDY    24  22  91 W24G31    29.59R FOG     WCI   8
FOREST CITY *  CLOUDY    25  23  93 W10G18    29.59R WCI  15
WEBSTER CITY * CLOUDY    25  23  93 W20       29.63R WCI  11
IOWA FALLS *   CLOUDY    28  25  90 W24G30    29.64R WCI  13
$$

IAZ007>011-017>019-026>030-037>042-050>054-066-250500-
   NORTHEAST IOWA

CITY           SKY/WX    TMP DP  RH WIND       PRES   REMARKS
CEDAR RAPIDS   CLOUDY    34  27  75 W25       29.58S WCI  21
CHARLES CITY * CLOUDY    28  28 100 W28G37    29.57R WCI  13
CLINTON *      LGT RAIN  38  38 100 W17       29.54S WCI  28
DECORAH *      CLOUDY    32  32 100 SW9       29.50F WCI  24
DUBUQUE        RAIN      35  34  96 W20       29.52S FOG     WCI  24
MONTICELLO *   CLOUDY    34  34 100 W16       29.56R WCI  23
OELWEIN *      CLOUDY    32  32 100 W22G29    29.55S WCI  19
WATERLOO       MOCLDY    30  27  88 W17G29    29.59R WCI  18
$$

IAZ064-065-067-068-078-250500-
   EAST CENTRAL IOWA

CITY           SKY/WX    TMP DP  RH WIND       PRES   REMARKS
DAVENPORT      RAIN      39  36  89 W17G23    29.59R FOG     WCI  30
IOWA CITY      CLOUDY    36  33  89 W24G32    29.63R WCI  24
MUSCATINE *    CLOUDY    37  34  87 W22G28    29.64R WCI  27
QUAD CITIES    LGT RAIN  41  39  93 W22G28    29.56S
$$

IAZ062-063-075>077-085>089-095>099-250500-
   SOUTHEAST IOWA

CITY           SKY/WX    TMP DP  RH WIND       PRES   REMARKS
BURLINGTON     CLOUDY    38  37  97 W13G24    29.64R WCI  30
FAIRFIELD *    CLOUDY    34  32  93 W24G30    29.67R WCI  21
FORT MADISON * MOCLDY    36  36 100 W24G30    29.68R WCI  24
KEOKUK *       CLOUDY    37  34  87 W25G36    29.68R WCI  26
OSKALOOSA *    FAIR      31  31  99 W18G24    29.69R WCI  20
OTTUMWA          N/A    N/A N/A N/A MISG      29.68R
WASHINGTON *   CLOUDY    34  34 100 W21G30    29.65R WCI  22
$$

ABBREVIATIONS USED IN REMARKS
   TC - TEMPERATURES IN CELSIUS
  WCI - WIND CHILL INDEX
   HX - HEAT INDEX
  VSB - VISIBILITY
$$





USA.gov is the U.S. government's official web portal to all federal, state and local government web resources and services.